Regional Weather Roundup
Issued by NWS

Home | Current Version | Previous Version | Graphics & Text | Print | Product List | Glossary On
Versions: 1 2 3 4 5 6 7 8 9 10 11 12 13 14 15 16 17 18 19 20 21 22 23 24 25 26 27 28 29 30 31 32 33 34 35 36 37 38 39 40 41 42 43 44 45 46 47 48 49 50
924
ASUS45 KCYS 292010
RWRWY

WYOMING REGIONAL WEATHER ROUNDUP
NATIONAL WEATHER SERVICE CHEYENNE WY
200 PM MDT MON AUG 29 2016

NOTE:  "FAIR" INDICATES FEW OR NO CLOUDS BELOW 12,000 FEET
WITH NO SIGNIFICANT WEATHER AND/OR OBSTRUCTIONS TO VISIBILITY.

WYZ001-292100-
YELLOWSTONE NATIONAL PARK

CITY           SKY/WX    TMP DP  RH WIND       PRES   REMARKS
LK YELLOWSTONE   N/A     74  37  26 VRB6      30.46F
W YELLOWSTONE  NOT AVBL

$$
WYZ002>013-054>058-071-098>099-292100-
NORTHERN WYOMING

CITY           SKY/WX    TMP DP  RH WIND       PRES   REMARKS
JACKSON        NOT AVBL
CODY           FAIR      77  48  36 N8        30.29F
GREYBULL       FAIR      83  36  18 CALM      30.22F HAZE
WORLAND        FAIR      80  47  31 NE5       30.25F
SHERIDAN       FAIR      85  48  27 E7        30.26F
BUFFALO        FAIR      83  43  24 CALM      30.34F
GILLETTE       FAIR      84  45  25 E8        30.27F
HULETT         FAIR      79  50  36 E13G20    30.31F
NEWCASTLE      FAIR      84  41  21 S7        30.27F

$$
WYZ014>020-022>026-101>103-292100-
CENTRAL WYOMING

CITY           SKY/WX    TMP DP  RH WIND       PRES   REMARKS
BIG PINEY      FAIR      81  27  14 SW10      30.41F
PINEDALE       FAIR      79  27  14 SW7G18    30.42F
DUBOIS         FAIR      73  25  16 SE13G21   30.41F
LANDER         FAIR      83  34  17 E10       30.33F
RIVERTON       FAIR      82  35  18 E12       30.33F
CASPER         FAIR      83  37  19 SE9       30.31F
DOUGLAS        FAIR      87  39  18 VRB3      30.29F

$$
WYZ021-027>030-104>119-292100-
SOUTHERN WYOMING

CITY           SKY/WX    TMP DP  RH WIND       PRES   REMARKS
EVANSTON       FAIR      80  25  13 CALM      30.39F
FORT BRIDGER   FAIR      82  25  12 CALM      30.42F
ROCK SPRINGS   FAIR      82  22  11 NE9G18    30.37F
DIXON          FAIR      85  29  13 S7G16     30.34F
RAWLINS        FAIR      82  29  14 NE12G18   30.38F
SARATOGA       FAIR      81  28  15 NE14G23   30.38F
LARAMIE        FAIR      78  30  17 E16G24    30.41S
CHEYENNE       FAIR      79  38  22 VRB5      30.35F
TORRINGTON     FAIR      88  42  20 SE14      30.23S
PINE BLUFFS    FAIR      82  32  16 E6        30.30S

$$




USA.gov is the U.S. government's official web portal to all federal, state and local government web resources and services.